Location: Eaton Estates
(41.3089°N, 82.0057°W)
Time: 06:59:05
(UTC+00:00)

NOAA 18 - Pass Details

Date: 06 April 2023
Orbit: 838 x 860 km, 98.9° (Epoch: 03 June)

Event Time Altitude Azimuth Distance (km) Brightness Sun altitude
Exits shadow 04:47:09 14° 300° (WNW) 2,257 7.8 -41.3°
Drops below altitude 10° 04:48:16 10° 310° (NW) 2,503 8.1 -41.4°
Sets 04:51:29 0° 329° (NNW) 3,445 9.2 -41.5°
